Regional Weather Roundup
Issued by NWS

Home | Current Version | Previous Version | Graphics & Text | Print | Product List | Glossary On
Versions: 1 2 3 4 5 6 7 8 9 10 11 12 13 14 15 16 17 18 19 20 21 22 23 24 25 26 27 28 29 30 31 32 33 34 35 36 37 38 39 40 41 42 43 44 45 46 47 48 49 50
000
ASUS43 KTOP 241659
RWRKS

WEATHER ROUNDUP FOR KANSAS
NATIONAL WEATHER SERVICE GOODLAND KS
1200 PM CDT SAT JUN 24 2017

NOTE:  "FAIR" INDICATES FEW OR NO CLOUDS BELOW 12,000 FEET WITH NO
SIGNIFICANT WEATHER AND/OR OBSTRUCTIONS TO VISIBILITY.

KSZ001>006-013>018-027>032-041>047-241800-
NORTHWEST KANSAS

CITY           SKY/WX    TMP DP  RH WIND       PRES   REMARKS
GOODLAND       CLOUDY    65  50  58 SE14      30.31R
HAYS           CLOUDY    73  51  46 SE10      30.29S
HILL CITY      PTSUNNY   70  47  43 SE8       30.31R
RUSSELL        MOSUNNY   75  45  34 SE10      30.27F
$$

KSZ061>065-074>080-084>089-241800-
SOUTHWEST KANSAS

CITY           SKY/WX    TMP DP  RH WIND       PRES   REMARKS
DODGE CITY     CLOUDY    73  51  46 S10       30.28F
ELKHART          N/A     72  43  35 S15         N/A
GARDEN CITY    CLOUDY    70  49  47 S13       30.29R
GREAT BEND     MOSUNNY   76  50  40 SE13G24   30.28S
LIBERAL        PTSUNNY   74  49  41 SE13G18   30.29S
$$

KSZ066>073-081>083-090>101-241800-
SOUTHEAST KANSAS

CITY           SKY/WX    TMP DP  RH WIND       PRES   REMARKS
CHANUTE        SUNNY     79  43  27 N9G20     30.24
COFFEYVILLE    SUNNY     80  51  36 N8        30.23F
HUTCHINSON     SUNNY     78  46  32 VRB6      30.26F
MEDICINE LODGE   N/A     78  50  37 SE8       30.26S
NEWTON         SUNNY     76  46  34 VRB5      30.28S
PARSONS        SUNNY     79  49  34 VRB5      30.25S
WICHITA INTL   PTSUNNY   76  53  44 VRB3      30.26F
WICHITA JABRA  SUNNY     75  51  43 S5        30.27S
WICHITA MCCONL MOSUNNY   77  54  44 SE3       30.27S
WINFIELD       SUNNY     78  50  37 E9        30.27S
$$

KSZ007>012-019>026-033>040-048>060-102>105-241800-
NORTHEAST KANSAS

CITY           SKY/WX    TMP DP  RH WIND       PRES   REMARKS
CONCORDIA      MOSUNNY   74  36  25 VRB3      30.27R
EMPORIA        MOSUNNY   73  43  33 VRB5      30.26R
LAWRENCE       SUNNY     75  43  31 VRB5      30.25S
MANHATTAN      SUNNY     78  41  26 NE10      30.25F
OLATHE IND     SUNNY     75  43  31 NE9       30.26S
OLATHE EXE     SUNNY     74  39  28 N10       30.25S
SALINA         SUNNY     79  43  27 VRB3      30.28S
TOPEKA BILLARD SUNNY     75  44  33 VRB5      30.25S
TOPEKA FORBES  SUNNY     76  40  27 CALM      30.26S
$$




USA.gov is the U.S. government's official web portal to all federal, state and local government web resources and services.